JST574 YMML-YBBN

Flight info

Callsign JST574
Flight time N/A
Altitude 35000
Route DCT ML H66 LAGOB H252 BN DCT
Aircraft A20N/M-SDE2E3FGHIRWXY/LB1

Departure

Time 2026-04-30 06:41
Airport Melbourne Airport (YMML)

Arrival

Time N/A
Airport Brisbane International Airport (YBBN)
Time Latitude Longitude Altitude Speed Heading
2026-04-30 06:12 -37.67269 144.84660 442 ft 0 kts 171°
2026-04-30 06:31 -37.67258 144.84659 441 ft 2 kts 171°
2026-04-30 06:31 -37.67243 144.84656 441 ft 2 kts 171°
2026-04-30 06:31 -37.67228 144.84653 441 ft 2 kts 180°
2026-04-30 06:31 -37.67213 144.84657 441 ft 2 kts 207°
2026-04-30 06:32 -37.67201 144.84670 441 ft 2 kts 231°
2026-04-30 06:32 -37.67194 144.84686 441 ft 2 kts 256°
2026-04-30 06:32 -37.67192 144.84705 442 ft 2 kts 263°
2026-04-30 06:32 -37.67190 144.84715 441 ft 0 kts 260°
2026-04-30 06:35 -37.67191 144.84714 441 ft 1 kts 264°
2026-04-30 06:35 -37.67193 144.84689 441 ft 4 kts 262°
2026-04-30 06:35 -37.67198 144.84641 441 ft 6 kts 261°
2026-04-30 06:35 -37.67207 144.84570 441 ft 9 kts 262°
2026-04-30 06:36 -37.67206 144.84477 441 ft 11 kts 288°
2026-04-30 06:36 -37.67202 144.84381 441 ft 11 kts 263°
2026-04-30 06:36 -37.67228 144.84285 441 ft 11 kts 215°
2026-04-30 06:36 -37.67308 144.84288 441 ft 12 kts 171°
2026-04-30 06:37 -37.67395 144.84305 441 ft 12 kts 172°
2026-04-30 06:37 -37.67487 144.84322 441 ft 13 kts 171°
2026-04-30 06:37 -37.67589 144.84340 441 ft 15 kts 171°
2026-04-30 06:37 -37.67709 144.84363 441 ft 18 kts 171°
2026-04-30 06:38 -37.67843 144.84389 441 ft 19 kts 171°
2026-04-30 06:38 -37.67981 144.84415 441 ft 19 kts 172°
2026-04-30 06:38 -37.68125 144.84442 441 ft 21 kts 171°
2026-04-30 06:38 -37.68224 144.84460 441 ft 21 kts 171°
2026-04-30 06:39 -37.68383 144.84431 441 ft 18 kts 210°
2026-04-30 06:39 -37.68497 144.84346 441 ft 16 kts 213°
2026-04-30 06:39 -37.68550 144.84251 441 ft 7 kts 256°
2026-04-30 06:39 -37.68559 144.84178 441 ft 9 kts 264°
2026-04-30 06:40 -37.68527 144.84097 441 ft 11 kts 333°
2026-04-30 06:40 -37.68401 144.84071 441 ft 40 kts 350°
2026-04-30 06:40 -37.67878 144.83974 442 ft 106 kts 352°
2026-04-30 06:40 -37.66936 144.83797 444 ft 160 kts 352°
2026-04-30 06:41 -37.65727 144.83560 833 ft 172 kts 353°
2026-04-30 06:41 -37.64513 144.83328 1519 ft 171 kts 353°
2026-04-30 06:41 -37.63318 144.83089 2280 ft 167 kts 352°
2026-04-30 06:41 -37.62080 144.82842 2686 ft 182 kts 352°
2026-04-30 06:42 -37.60724 144.82576 3016 ft 201 kts 352°
2026-04-30 06:42 -37.59195 144.82497 3365 ft 222 kts
2026-04-30 06:42 -37.57621 144.83134 3800 ft 241 kts 22°
2026-04-30 06:42 -37.56038 144.84088 4355 ft 255 kts 24°
2026-04-30 06:43 -37.54397 144.85107 5161 ft 258 kts 24°
2026-04-30 06:43 -37.52750 144.86127 5970 ft 261 kts 23°
2026-04-30 06:43 -37.51066 144.87157 6758 ft 265 kts 22°
2026-04-30 06:43 -37.49386 144.88181 7522 ft 269 kts 21°
2026-04-30 06:44 -37.47622 144.89250 8296 ft 274 kts 21°
2026-04-30 06:44 -37.45870 144.90311 9033 ft 279 kts 21°
2026-04-30 06:44 -37.44099 144.91475 9757 ft 286 kts 25°
2026-04-30 06:44 -37.42366 144.92850 10423 ft 295 kts 30°
2026-04-30 06:45 -37.40638 144.94408 10802 ft 313 kts 31°
2026-04-30 06:45 -37.38782 144.96118 11132 ft 331 kts 32°
2026-04-30 06:45 -37.36864 144.97893 11441 ft 349 kts 32°
2026-04-30 06:45 -37.34803 144.99795 11752 ft 365 kts 32°
2026-04-30 06:46 -37.32698 145.01739 12333 ft 372 kts 32°
2026-04-30 06:46 -37.30558 145.03717 13048 ft 375 kts 32°
2026-04-30 06:46 -37.28425 145.05682 13694 ft 379 kts 31°
2026-04-30 06:46 -37.26244 145.07687 14319 ft 384 kts 31°
2026-04-30 06:47 -37.24066 145.09683 14932 ft 388 kts 31°
2026-04-30 06:47 -37.21856 145.11705 15537 ft 392 kts 31°
2026-04-30 06:47 -37.19603 145.13766 16126 ft 396 kts 31°
2026-04-30 06:47 -37.17371 145.15804 16693 ft 400 kts 30°
2026-04-30 06:48 -37.15085 145.17888 17256 ft 404 kts 30°
2026-04-30 06:48 -37.12747 145.20020 17810 ft 409 kts 30°
2026-04-30 06:48 -37.10378 145.22179 18363 ft 412 kts 30°
2026-04-30 06:48 -37.08004 145.24359 18904 ft 417 kts 32°
2026-04-30 06:49 -37.05690 145.26685 19434 ft 422 kts 34°
2026-04-30 06:49 -37.03406 145.29051 19954 ft 425 kts 34°
2026-04-30 06:49 -37.01079 145.31470 20469 ft 428 kts 34°
2026-04-30 06:49 -36.98731 145.33905 20977 ft 431 kts 34°
2026-04-30 06:50 -36.96379 145.36343 21601 ft 431 kts 34°
2026-04-30 06:50 -36.94040 145.38762 22147 ft 432 kts 34°
2026-04-30 06:50 -36.91685 145.41193 22606 ft 436 kts 33°
2026-04-30 06:50 -36.89267 145.43684 23064 ft 439 kts 33°
2026-04-30 06:51 -36.86884 145.46124 23510 ft 442 kts 33°
2026-04-30 06:51 -36.84465 145.48598 23948 ft 445 kts 33°
2026-04-30 06:51 -36.82013 145.51108 24376 ft 448 kts 33°
2026-04-30 06:51 -36.79559 145.53621 24790 ft 451 kts 33°
2026-04-30 06:52 -36.77112 145.56128 25193 ft 454 kts 33°
2026-04-30 06:52 -36.74639 145.58659 25580 ft 456 kts 33°
2026-04-30 06:52 -36.72140 145.61218 25960 ft 459 kts 33°
2026-04-30 06:52 -36.69636 145.63779 26317 ft 462 kts 33°
2026-04-30 06:53 -36.67106 145.66367 26643 ft 465 kts 32°
2026-04-30 06:53 -36.64575 145.68970 26978 ft 467 kts 32°
2026-04-30 06:53 -36.62015 145.71597 27309 ft 470 kts 32°
2026-04-30 06:53 -36.59478 145.74197 27679 ft 470 kts 32°
2026-04-30 06:54 -36.56900 145.76833 28135 ft 468 kts 31°
2026-04-30 06:54 -36.54387 145.79398 28572 ft 467 kts 31°
2026-04-30 06:54 -36.51833 145.81998 28990 ft 466 kts 31°
2026-04-30 06:54 -36.49291 145.84581 29392 ft 466 kts 31°
2026-04-30 06:55 -36.46775 145.87134 29785 ft 465 kts 31°
2026-04-30 06:55 -36.44226 145.89719 30179 ft 464 kts 31°
2026-04-30 06:55 -36.41725 145.92252 30559 ft 463 kts 30°
2026-04-30 06:55 -36.39187 145.94821 30938 ft 463 kts 30°
2026-04-30 06:56 -36.36669 145.97366 31307 ft 462 kts 30°
2026-04-30 06:56 -36.34170 145.99890 31666 ft 461 kts 30°
2026-04-30 06:56 -36.31669 146.02416 32014 ft 461 kts 30°
2026-04-30 06:56 -36.29172 146.04935 32348 ft 460 kts 30°
2026-04-30 06:57 -36.26640 146.07486 32677 ft 459 kts 30°
2026-04-30 06:57 -36.24139 146.10004 32995 ft 458 kts 30°
2026-04-30 06:57 -36.21621 146.12537 33304 ft 458 kts 29°
2026-04-30 06:57 -36.19137 146.15033 33591 ft 457 kts 29°
2026-04-30 06:58 -36.16632 146.17548 33833 ft 458 kts 29°
2026-04-30 06:58 -36.14082 146.20105 34053 ft 459 kts 29°
2026-04-30 06:58 -36.11569 146.22621 34264 ft 460 kts 29°
2026-04-30 06:58 -36.09044 146.25150 34472 ft 461 kts 29°
2026-04-30 06:59 -36.06486 146.27708 34678 ft 461 kts 29°
2026-04-30 06:59 -36.03946 146.30247 34874 ft 462 kts 29°
2026-04-30 06:59 -36.01406 146.32787 35064 ft 463 kts 29°
2026-04-30 06:59 -35.98852 146.35335 35243 ft 464 kts 29°
2026-04-30 07:00 -35.96266 146.37915 35275 ft 465 kts 29°
2026-04-30 07:00 -35.91136 146.43027 35288 ft 465 kts 29°
2026-04-30 07:01 -35.86021 146.48100 35290 ft 465 kts 29°
2026-04-30 07:01 -35.80915 146.53151 35291 ft 465 kts 29°
2026-04-30 07:02 -35.75817 146.58197 35299 ft 465 kts 29°
2026-04-30 07:02 -35.70748 146.63211 35318 ft 465 kts 29°
2026-04-30 07:03 -35.65637 146.68275 35346 ft 465 kts 29°
2026-04-30 07:03 -35.60604 146.73263 35372 ft 464 kts 28°
2026-04-30 07:04 -35.55514 146.78275 35387 ft 464 kts 28°
2026-04-30 07:04 -35.50421 146.83272 35394 ft 464 kts 28°
2026-04-30 07:05 -35.42825 146.90718 35398 ft 464 kts 29°
2026-04-30 07:05 -35.37709 146.95743 35398 ft 466 kts 29°
2026-04-30 07:06 -35.32540 147.00804 35398 ft 467 kts 29°
2026-04-30 07:06 -35.27341 147.05879 35398 ft 469 kts 29°
2026-04-30 07:07 -35.22126 147.10960 35398 ft 471 kts 29°
2026-04-30 07:07 -35.16935 147.16008 35399 ft 472 kts 29°
2026-04-30 07:08 -35.11776 147.21019 35399 ft 472 kts 29°
2026-04-30 07:08 -35.06543 147.26090 35399 ft 472 kts 29°
2026-04-30 07:09 -35.01330 147.31131 35399 ft 472 kts 30°
2026-04-30 07:09 -34.96106 147.36173 35399 ft 472 kts 30°
2026-04-30 07:10 -34.90868 147.41220 35399 ft 473 kts 30°
2026-04-30 07:10 -34.85614 147.46260 35399 ft 473 kts 30°
2026-04-30 07:11 -34.80318 147.51331 35399 ft 474 kts 30°
2026-04-30 07:11 -34.75015 147.56413 35399 ft 474 kts 30°
2026-04-30 07:12 -34.69728 147.61473 35399 ft 474 kts 30°
2026-04-30 07:12 -34.64469 147.66505 35396 ft 473 kts 30°
2026-04-30 07:13 -34.59266 147.71504 35398 ft 473 kts 30°
2026-04-30 07:13 -34.53983 147.76556 35399 ft 473 kts 30°
2026-04-30 07:14 -34.48713 147.81573 35399 ft 473 kts 30°
2026-04-30 07:14 -34.43465 147.86557 35399 ft 473 kts 30°
2026-04-30 07:15 -34.38152 147.91595 35399 ft 473 kts 30°
2026-04-30 07:15 -34.32867 147.96597 35399 ft 473 kts 30°
2026-04-30 07:16 -34.27532 148.01637 35399 ft 473 kts 30°
2026-04-30 07:16 -34.22263 148.06609 35399 ft 473 kts 30°
2026-04-30 07:17 -34.16923 148.11638 35399 ft 473 kts 30°
2026-04-30 07:18 -34.08926 148.19153 35399 ft 473 kts 30°
2026-04-30 07:18 -34.03616 148.24135 35399 ft 473 kts 30°
2026-04-30 07:19 -33.98323 148.29091 35396 ft 473 kts 30°
2026-04-30 07:19 -33.93028 148.34041 35396 ft 473 kts 30°
2026-04-30 07:20 -33.87772 148.38942 35396 ft 473 kts 29°
2026-04-30 07:20 -33.82491 148.43840 35386 ft 473 kts 29°
2026-04-30 07:21 -33.77202 148.48750 35368 ft 473 kts 30°
2026-04-30 07:21 -33.72807 148.52830 35350 ft 473 kts 30°
2026-04-30 07:22 -33.64137 148.60867 35329 ft 473 kts 30°
2026-04-30 07:22 -33.58882 148.65732 35322 ft 473 kts 29°
2026-04-30 07:23 -33.56251 148.68178 35321 ft 473 kts 29°
2026-04-30 07:23 -33.48342 148.75514 35320 ft 473 kts 29°
2026-04-30 07:24 -33.43085 148.80359 35320 ft 472 kts 29°
2026-04-30 07:24 -33.37798 148.85219 35320 ft 473 kts 29°
2026-04-30 07:25 -33.33436 148.89221 35320 ft 475 kts 29°
2026-04-30 07:26 -33.21895 148.99791 35320 ft 477 kts 30°
2026-04-30 07:26 -33.16579 149.04648 35320 ft 479 kts 30°
2026-04-30 07:27 -33.11249 149.09512 35320 ft 479 kts 30°
2026-04-30 07:27 -33.05937 149.14348 35321 ft 479 kts 30°
2026-04-30 07:28 -33.00669 149.19135 35321 ft 479 kts 31°
2026-04-30 07:28 -32.95440 149.23881 35321 ft 478 kts 31°
2026-04-30 07:29 -32.90179 149.28654 35321 ft 478 kts 31°
2026-04-30 07:29 -32.84971 149.33353 35320 ft 478 kts 31°
2026-04-30 07:30 -32.77165 149.40385 35320 ft 478 kts 31°
2026-04-30 07:31 -32.71932 149.45102 35320 ft 478 kts 31°
2026-04-30 07:31 -32.66610 149.49892 35320 ft 478 kts 31°
2026-04-30 07:32 -32.61220 149.54733 35320 ft 478 kts 31°
2026-04-30 07:32 -32.55944 149.59467 35320 ft 478 kts 31°
2026-04-30 07:33 -32.50549 149.64078 35320 ft 476 kts 29°
2026-04-30 07:33 -32.45272 149.68517 35319 ft 477 kts 28°
2026-04-30 07:34 -32.39837 149.73099 35320 ft 477 kts 28°
2026-04-30 07:34 -32.34604 149.77498 35320 ft 476 kts 28°
2026-04-30 07:35 -32.29248 149.81988 35320 ft 476 kts 28°
2026-04-30 07:35 -32.23803 149.86548 35321 ft 476 kts 28°
2026-04-30 07:36 -32.18306 149.91142 35323 ft 476 kts 28°
2026-04-30 07:36 -32.12823 149.95717 35329 ft 476 kts 28°
2026-04-30 07:37 -32.07302 150.00316 35336 ft 476 kts 28°
2026-04-30 07:37 -32.01796 150.04897 35341 ft 476 kts 28°
2026-04-30 07:38 -31.96268 150.09486 35344 ft 476 kts 28°
2026-04-30 07:38 -31.90745 150.14062 35345 ft 476 kts 28°
2026-04-30 07:39 -31.85185 150.18645 35345 ft 476 kts 28°
2026-04-30 07:39 -31.79639 150.23216 35345 ft 476 kts 28°
2026-04-30 07:40 -31.74067 150.27823 35345 ft 476 kts 28°
2026-04-30 07:40 -31.68491 150.32422 35345 ft 476 kts 28°
2026-04-30 07:41 -31.62962 150.36969 35345 ft 476 kts 28°
2026-04-30 07:41 -31.57426 150.41528 35345 ft 476 kts 29°
2026-04-30 07:42 -31.51846 150.46121 35345 ft 476 kts 28°
2026-04-30 07:42 -31.46270 150.50696 35345 ft 476 kts 28°
2026-04-30 07:43 -31.40764 150.55202 35345 ft 476 kts 28°
2026-04-30 07:43 -31.35190 150.59757 35345 ft 476 kts 28°
2026-04-30 07:44 -31.29664 150.64265 35345 ft 476 kts 28°
2026-04-30 07:44 -31.24224 150.68718 35343 ft 476 kts 28°
2026-04-30 07:45 -31.18754 150.73184 35345 ft 476 kts 28°
2026-04-30 07:45 -31.13231 150.77663 35345 ft 476 kts 28°
2026-04-30 07:46 -31.07759 150.82149 35344 ft 478 kts 31°
2026-04-30 07:46 -31.02560 150.87236 35345 ft 482 kts 36°
2026-04-30 07:47 -30.97534 150.92514 35345 ft 482 kts 36°
2026-04-30 07:47 -30.92499 150.97777 35345 ft 482 kts 36°
2026-04-30 07:48 -30.87405 151.03064 35345 ft 481 kts 36°
2026-04-30 07:48 -30.82368 151.08261 35345 ft 481 kts 36°
2026-04-30 07:49 -30.77301 151.13498 35345 ft 481 kts 36°
2026-04-30 07:49 -30.72182 151.18788 35345 ft 481 kts 36°
2026-04-30 07:50 -30.67147 151.23987 35345 ft 481 kts 36°
2026-04-30 07:50 -30.62045 151.29246 35345 ft 481 kts 36°
2026-04-30 07:51 -30.56958 151.34482 35345 ft 481 kts 36°
2026-04-30 07:51 -30.51881 151.39700 35345 ft 481 kts 36°
2026-04-30 07:52 -30.46784 151.44930 35345 ft 481 kts 36°
2026-04-30 07:52 -30.41706 151.50130 35345 ft 481 kts 36°
2026-04-30 07:53 -30.36646 151.55301 35345 ft 481 kts 36°
2026-04-30 07:53 -30.31602 151.60457 35345 ft 481 kts 37°
2026-04-30 07:54 -30.26586 151.65593 35343 ft 481 kts 36°
2026-04-30 07:54 -30.21578 151.70734 35344 ft 480 kts 36°
2026-04-30 07:55 -30.16617 151.75800 35347 ft 480 kts 36°
2026-04-30 07:55 -30.12035 151.80460 35350 ft 480 kts 36°